• In Austria
  • List of Countries
  • For 7 days
  • Water Temperature
  • Satellite Maps
  • Weather Map
  • News
  • Weather Widgets
  • user-avatar
    Login

    Hourly Weather Biatris

    Today, 19 October, Thursday

    Time Temperature Precipitation Wind Pressure Humidity
    00:00 +21°C° 0 mm 3 mps 653 mmHg 73%
    01:00 +21°C° 0 mm 3 mps 653 mmHg 73%
    02:00 +20°C° 0 mm 3 mps 653 mmHg 74%
    03:00 +20°C° 0 mm 2 mps 652 mmHg 73%
    04:00 +20°C° 0 mm 2 mps 652 mmHg 72%
    05:00 +19°C° 0 mm 2 mps 652 mmHg 71%
    06:00 +22°C° 0 mm 3 mps 653 mmHg 59%
    07:00 +26°C° 0 mm 3 mps 654 mmHg 47%
    08:00 +28°C° 0 mm 3 mps 656 mmHg 35%
    09:00 +31°C° 0 mm 3 mps 656 mmHg 30%
    10:00 +34°C° 0 mm 3 mps 656 mmHg 24%
    11:00 +37°C° 0 mm 3 mps 656 mmHg 18%
    12:00 +37°C° 0 mm 3 mps 655 mmHg 17%
    13:00 +37°C° 0 mm 3 mps 655 mmHg 16%
    14:00 +38°C° 0 mm 2 mps 654 mmHg 15%
    15:00 +37°C° 0 mm 2 mps 654 mmHg 16%
    16:00 +35°C° 0 mm 2 mps 653 mmHg 18%
    17:00 +34°C° 0 mm 2 mps 653 mmHg 20%
    18:00 +32°C° 0 mm 2 mps 653 mmHg 22%
    19:00 +31°C° 0 mm 2 mps 654 mmHg 24%
    20:00 +30°C° 0 mm 3 mps 654 mmHg 26%
    21:00 +30°C° 0 mm 3 mps 654 mmHg 28%
    22:00 +29°C° 0 mm 3 mps 654 mmHg 31%
    23:00 +28°C° 0 mm 4 mps 655 mmHg 33%

    Tomorrow, 20 October, Friday

    Time Temperature Precipitation Wind Pressure Humidity
    00:00 +27°C° 0 mm 3 mps 654 mmHg 36%
    01:00 +27°C° 0 mm 3 mps 654 mmHg 39%
    02:00 +26°C° 0 mm 2 mps 653 mmHg 42%
    03:00 +25°C° 0 mm 2 mps 653 mmHg 43%
    04:00 +25°C° 0 mm 2 mps 653 mmHg 44%
    05:00 +24°C° 0 mm 2 mps 653 mmHg 46%
    06:00 +27°C° 0 mm 3 mps 654 mmHg 39%
    07:00 +29°C° 0 mm 3 mps 655 mmHg 32%
    08:00 +33°C° 0 mm 4 mps 656 mmHg 26%
    09:00 +35°C° 0 mm 4 mps 656 mmHg 21%
    10:00 +37°C° 0 mm 4 mps 656 mmHg 17%
    11:00 +40°C° 0 mm 4 mps 657 mmHg 13%
    12:00 +38°C° 0 mm 4 mps 656 mmHg 13%
    13:00 +38°C° 0 mm 4 mps 655 mmHg 14%
    14:00 +38°C° 0 mm 4 mps 654 mmHg 14%
    15:00 +37°C° 0 mm 4 mps 654 mmHg 16%
    16:00 +36°C° 0 mm 4 mps 654 mmHg 18%
    17:00 +35°C° 0 mm 4 mps 654 mmHg 19%
    18:00 +33°C° 0 mm 3 mps 654 mmHg 22%
    19:00 +31°C° 0 mm 3 mps 654 mmHg 25%
    20:00 +29°C° 0 mm 2 mps 655 mmHg 28%
    21:00 +28°C° 0 mm 2 mps 655 mmHg 31%
    22:00 +27°C° 0 mm 2 mps 655 mmHg 34%
    23:00 +27°C° 0 mm 2 mps 655 mmHg 38%

    Day after tomorrow, 21 October, Saturday

    Time Temperature Precipitation Wind Pressure Humidity
    00:00 +26°C° 0 mm 2 mps 655 mmHg 41%
    01:00 +25°C° 0 mm 2 mps 654 mmHg 45%
    02:00 +24°C° 0 mm 2 mps 653 mmHg 49%
    03:00 +23°C° 0 mm 2 mps 654 mmHg 53%
    04:00 +23°C° 0 mm 2 mps 654 mmHg 58%
    05:00 +21°C° 0 mm 3 mps 654 mmHg 62%
    06:00 +24°C° 0 mm 3 mps 655 mmHg 54%
    07:00 +27°C° 0 mm 4 mps 656 mmHg 46%
    08:00 +29°C° 0 mm 5 mps 657 mmHg 39%
    09:00 +32°C° 0 mm 5 mps 657 mmHg 31%
    10:00 +35°C° 0 mm 5 mps 658 mmHg 24%
    11:00 +37°C° 0 mm 5 mps 658 mmHg 17%
    12:00 +37°C° 0 mm 5 mps 657 mmHg 16%
    13:00 +37°C° 0 mm 4 mps 657 mmHg 16%
    14:00 +37°C° 0 mm 4 mps 656 mmHg 15%
    15:00 +36°C° 0 mm 4 mps 656 mmHg 17%
    16:00 +35°C° 0 mm 3 mps 655 mmHg 19%
    17:00 +33°C° 0 mm 3 mps 655 mmHg 22%
    18:00 +32°C° 0 mm 4 mps 656 mmHg 26%
    19:00 +30°C° 0 mm 4 mps 656 mmHg 31%
    20:00 +29°C° 0 mm 4 mps 657 mmHg 35%
    21:00 +28°C° 0 mm 4 mps 657 mmHg 41%
    22:00 +26°C° 0 mm 4 mps 657 mmHg 47%
    23:00 +25°C° 0 mm 4 mps 656 mmHg 54%

    22 October, Sunday

    Time Temperature Precipitation Wind Pressure Humidity
    00:00 +23°C° 0 mm 4 mps 656 mmHg 57%
    01:00 +22°C° 0 mm 3 mps 655 mmHg 60%
    02:00 +21°C° 0 mm 3 mps 654 mmHg 63%
    03:00 +20°C° 0 mm 3 mps 655 mmHg 64%
    04:00 +20°C° 0 mm 3 mps 655 mmHg 66%
    05:00 +19°C° 0 mm 3 mps 655 mmHg 67%
    06:00 +21°C° 0 mm 4 mps 656 mmHg 59%
    07:00 +25°C° 0 mm 4 mps 657 mmHg 50%
    08:00 +27°C° 0 mm 5 mps 658 mmHg 41%
    09:00 +29°C° 0 mm 5 mps 658 mmHg 34%
    10:00 +32°C° 0 mm 5 mps 658 mmHg 28%
    11:00 +35°C° 0 mm 4 mps 658 mmHg 22%
    12:00 +35°C° 0 mm 4 mps 658 mmHg 21%
    13:00 +36°C° 0 mm 4 mps 657 mmHg 19%
    14:00 +36°C° 0 mm 4 mps 656 mmHg 18%
    15:00 +35°C° 0 mm 4 mps 656 mmHg 21%
    16:00 +34°C° 0 mm 4 mps 656 mmHg 23%
    17:00 +33°C° 0 mm 4 mps 655 mmHg 25%
    18:00 +32°C° 0 mm 4 mps 656 mmHg 30%
    19:00 +29°C° 0 mm 3 mps 656 mmHg 34%
    20:00 +27°C° 0 mm 3 mps 656 mmHg 38%
    21:00 +26°C° 0 mm 3 mps 656 mmHg 43%
    22:00 +26°C° 0 mm 3 mps 656 mmHg 47%
    23:00 +25°C° 0 mm 4 mps 656 mmHg 51%

    23 October, Monday

    Time Temperature Precipitation Wind Pressure Humidity
    00:00 +23°C° 0 mm 4 mps 655 mmHg 54%
    01:00 +22°C° 0 mm 3 mps 654 mmHg 57%
    02:00 +21°C° 0 mm 3 mps 654 mmHg 61%
    03:00 +21°C° 0 mm 3 mps 654 mmHg 63%
    04:00 +20°C° 0 mm 3 mps 654 mmHg 66%
    05:00 +20°C° 0 mm 2 mps 654 mmHg 68%
    06:00 +22°C° 0 mm 3 mps 655 mmHg 59%
    07:00 +25°C° 0 mm 4 mps 656 mmHg 49%
    08:00 +28°C° 0 mm 4 mps 657 mmHg 40%
    09:00 +30°C° 0 mm 4 mps 657 mmHg 32%
    10:00 +33°C° 0 mm 4 mps 657 mmHg 25%
    11:00 +35°C° 0 mm 3 mps 657 mmHg 18%
    12:00 +36°C° 0 mm 3 mps 657 mmHg 16%
    13:00 +37°C° 0 mm 3 mps 656 mmHg 15%
    14:00 +37°C° 0 mm 3 mps 655 mmHg 13%
    15:00 +37°C° 0 mm 3 mps 655 mmHg 14%
    16:00 +36°C° 0 mm 3 mps 655 mmHg 14%
    17:00 +35°C° 0 mm 3 mps 654 mmHg 15%
    18:00 +33°C° 0 mm 3 mps 655 mmHg 18%
    19:00 +30°C° 0 mm 3 mps 655 mmHg 20%
    20:00 +28°C° 0 mm 3 mps 655 mmHg 23%
    21:00 +27°C° 0 mm 3 mps 655 mmHg 25%
    22:00 +26°C° 0 mm 3 mps 654 mmHg 27%
    23:00 +25°C° 0 mm 3 mps 654 mmHg 29%

    24 October, Tuesday

    Time Temperature Precipitation Wind Pressure Humidity
    00:00 +24°C° 0 mm 3 mps 654 mmHg 32%
    01:00 +22°C° 0 mm 3 mps 653 mmHg 35%
    02:00 +21°C° 0 mm 2 mps 653 mmHg 38%
    03:00 +21°C° 0 mm 2 mps 653 mmHg 40%
    04:00 +20°C° 0 mm 2 mps 653 mmHg 42%
    05:00 +20°C° 0 mm 2 mps 653 mmHg 43%
    06:00 +24°C° 0 mm 2 mps 654 mmHg 37%
    07:00 +26°C° 0 mm 3 mps 655 mmHg 31%
    08:00 +29°C° 0 mm 3 mps 656 mmHg 25%
    09:00 +33°C° 0 mm 3 mps 656 mmHg 22%
    10:00 +35°C° 0 mm 2 mps 656 mmHg 18%
    11:00 +38°C° 0 mm 2 mps 656 mmHg 15%
    12:00 +38°C° 0 mm 2 mps 656 mmHg 13%
    13:00 +39°C° 0 mm 2 mps 655 mmHg 12%
    14:00 +40°C° 0 mm 2 mps 654 mmHg 11%
    15:00 +39°C° 0 mm 2 mps 654 mmHg 12%
    16:00 +38°C° 0 mm 3 mps 653 mmHg 12%
    17:00 +37°C° 0 mm 3 mps 653 mmHg 13%
    18:00 +35°C° 0 mm 3 mps 653 mmHg 16%
    19:00 +33°C° 0 mm 3 mps 653 mmHg 19%
    20:00 +29°C° 0 mm 3 mps 653 mmHg 22%
    21:00 +28°C° 0 mm 3 mps 653 mmHg 23%
    22:00 +28°C° 0 mm 3 mps 653 mmHg 25%
    23:00 +27°C° 0 mm 3 mps 653 mmHg 26%
    Show more